Location: ??????????
(54.8537°N, 38.8755°E)
Time: 13:58:28
(UTC+00:00)

Vanguard 2 Rocket - Visible Passes

Search period start: 13 September 2024 00:00
Search period end: 23 September 2024 00:00
Orbit: 553 x 3300 km, 32.9° (Epoch: 13 September)

Date Brightness Start Highest point End Pass type
(mag) Time Alt. Az. Time Alt. Az. Time Alt. Az.
13 Sep 9.7 00:35:44 19° SSW 00:43:50 31° SSE 00:59:00 10° ESE visible
13 Sep 10.3 21:30:35 10° ESE 21:30:35 10° ESE 21:31:06 10° ESE visible
13 Sep 9.7 23:36:04 23° S 23:40:02 26° SSE 23:53:11 10° ESE visible
14 Sep 9.9 01:41:33 11° SW 01:53:27 33° S 02:09:26 10° SE visible
14 Sep 9.8 22:36:25 20° SSE 22:36:41 20° SSE 22:46:48 10° ESE visible
15 Sep 9.6 00:41:54 20° SSW 00:49:17 31° S 01:04:16 10° ESE visible
15 Sep 10.2 21:36:46 12° SE 21:36:46 12° SE 21:39:17 10° ESE visible
15 Sep 9.5 23:42:15 25° S 23:45:28 27° SSE 23:58:38 10° ESE visible
16 Sep 9.9 01:47:45 11° WSW 01:58:56 31° S 02:14:14 10° SE visible
16 Sep 9.7 22:42:38 22° SSE 22:42:38 22° SSE 22:52:33 10° ESE visible
17 Sep 9.5 00:48:07 21° SW 00:54:49 30° S 01:09:15 10° SE visible
17 Sep 10.1 21:43:01 13° SE 21:43:01 13° SE 21:45:51 10° ESE visible
17 Sep 9.4 23:48:31 26° S 23:51:00 27° SSE 00:03:49 10° ESE visible
18 Sep 9.8 01:54:01 11° WSW 02:04:25 27° S 02:18:39 10° SE visible
18 Sep 9.7 22:48:56 23° SSE 22:48:56 23° SSE 22:58:00 10° ESE visible
19 Sep 9.5 00:54:26 20° SW 01:00:22 28° S 01:13:55 10° SE visible
19 Sep 10.1 21:49:23 13° SE 21:49:23 13° SE 21:51:47 10° ESE visible
19 Sep 9.4 23:54:53 26° S 23:56:34 26° S 00:08:43 10° SE visible
20 Sep 9.8 02:00:24 10° WSW 02:09:54 23° SSW 02:22:33 10° SSE visible
20 Sep 9.7 22:55:23 22° SSE 22:55:23 22° SSE 23:03:11 10° ESE visible
21 Sep 9.5 01:00:53 19° SW 01:05:57 25° S 01:18:11 10° SE visible
21 Sep 10.1 21:55:54 12° SE 21:55:54 12° SE 21:57:21 10° ESE visible
22 Sep 9.5 00:01:25 24° S 00:02:12 24° S 00:13:18 10° SE visible
22 Sep 9.9 02:07:13 10° WSW 02:15:25 19° SSW 02:25:42 10° SSE visible
22 Sep 9.7 23:01:59 20° SSE 23:01:59 20° SSE 23:08:04 10° SE visible
